User: anonymous   Login
Location: Muenchen
(48.1800°N, 11.5800°E)
Time: 20:34:50
(UTC+02:00)
Language:

Cosmos 2233 Rocket - Orbit

View from above orbital plane
View from above orbital plane
View from above satellite
View from above satellite

Ground track
Ground track

The orbit data is extracted from the following two-line orbital elements,

1 22488U 93008B   16272.96612144 +.00000152 +00000-0 +13690-3 0  9995
2 22488 082.9393 272.8176 0024196 235.3480 183.6558 13.77705365188007
Epoch (UTC): 28 September 2016 23:11:12
Eccentricity: 0.0024196
inclination: 82.9393°
perigee height: 954 km
apogee height: 990 km
right ascension of ascending node: 272.8176°
argument of perigee: 235.3480°
revolutions per day: 13.77705365
mean anomaly at epoch: 183.6558°
orbit number at epoch: 18800

The dashed part of the orbit path shows where the satellite is in the earth's shadow,  

DLR